| time (UTC) | temp F | wind direction | speed MPH | gust MPH | rain 1hr in | rain 24hr in | rain mn in | humidity % | barometer mb |
| 20260506231322 | 64 | 347 | 0.0 | 0.0 | 0.00 | 0.00 | 0.38 | 96 | 1007.1 |
| 20260506230839 | 64 | 318 | 0.0 | 0.0 | 0.00 | 0.00 | 0.34 | 96 | 1006.8 |
| 20260506230336 | 64 | 318 | 0.0 | 0.0 | 0.00 | 0.00 | 0.32 | 96 | 1006.6 |
| 20260506225844 | 64 | 318 | 0.0 | 0.0 | 0.00 | 0.00 | 0.32 | 96 | 1006.6 |
| 20260506225341 | 64 | 318 | 0.0 | 0.0 | 0.00 | 0.00 | 0.32 | 96 | 1006.5 |
| 20260506224821 | 65 | 318 | 0.0 | 0.0 | 0.00 | 0.00 | 0.32 | 96 | 1006.4 |
| 20260506224338 | 65 | 318 | 0.0 | 0.0 | 0.00 | 0.00 | 0.32 | 96 | 1006.4 |
| 20260506223831 | 65 | 318 | 0.0 | 0.0 | 0.00 | 0.00 | 0.32 | 96 | 1006.3 |
| 20260506223329 | 65 | 318 | 0.0 | 0.0 | 0.00 | 0.00 | 0.32 | 96 | 1006.5 |
| 20260506222841 | 65 | 318 | 0.0 | 0.0 | 0.00 | 0.00 | 0.32 | 96 | 1006.5 |
| 20260506222338 | 65 | 317 | 0.0 | 0.0 | 0.00 | 0.00 | 0.32 | 96 | 1006.5 |
| 20260506221839 | 65 | 317 | 0.0 | 0.0 | 0.00 | 0.00 | 0.32 | 96 | 1006.4 |
| 20260506221356 | 65 | 317 | 0.0 | 0.0 | 0.00 | 0.00 | 0.32 | 96 | 1006.4 |
| 20260506220847 | 65 | 317 | 0.0 | 0.0 | 0.00 | 0.00 | 0.32 | 96 | 1006.3 |
| 20260506220325 | 65 | 317 | 0.0 | 0.0 | 0.00 | 0.00 | 0.32 | 96 | 1006.2 |
| 20260506215821 | 65 | 317 | 0.0 | 0.0 | 0.00 | 0.00 | 0.32 | 96 | 1006.2 |
| 20260506215338 | 65 | 319 | 0.0 | 0.0 | 0.00 | 0.00 | 0.32 | 96 | 1006.2 |
| 20260506214836 | 65 | 319 | 0.0 | 0.0 | 0.00 | 0.00 | 0.32 | 96 | 1006.3 |
| 20260506214344 | 65 | 294 | 0.0 | 0.0 | 0.00 | 0.00 | 0.32 | 96 | 1006.4 |
| 20260506213837 | 65 | 336 | 0.0 | 0.0 | 0.00 | 0.00 | 0.32 | 96 | 1006.2 |
| 20260506213334 | 65 | 13 | 0.0 | 0.0 | 0.00 | 0.00 | 0.32 | 96 | 1006.2 |
| 20260506212831 | 65 | 13 | 0.0 | 0.0 | 0.00 | 0.00 | 0.32 | 96 | 1006.1 |
| 20260506212328 | 65 | 306 | 0.0 | 0.0 | 0.00 | 0.00 | 0.32 | 97 | 1006.1 |
| 20260506211834 | 64 | 296 | 0.0 | 0.0 | 0.00 | 0.00 | 0.32 | 97 | 1005.9 |
| 20260506211332 | 64 | 297 | 0.0 | 0.0 | 0.00 | 0.00 | 0.32 | 98 | 1005.9 |
| 20260506210830 | 64 | 296 | 0.0 | 0.0 | 0.00 | 0.00 | 0.32 | 98 | 1005.9 |
| 20260506210356 | 64 | 296 | 0.0 | 0.0 | 0.00 | 0.00 | 0.32 | 98 | 1005.9 |
| 20260506205832 | 64 | 296 | 0.0 | 0.0 | 0.00 | 0.00 | 0.32 | 98 | 1005.9 |
| 20260506205332 | 63 | 297 | 0.0 | 0.0 | 0.00 | 0.00 | 0.32 | 98 | 1005.9 |
| 20260506204858 | 63 | 297 | 0.0 | 0.0 | 0.00 | 0.00 | 0.32 | 98 | 1005.9 |
| 20260506204333 | 63 | 297 | 0.0 | 0.0 | 0.00 | 0.00 | 0.32 | 98 | 1005.9 |
| 20260506203830 | 63 | 297 | 0.0 | 0.0 | 0.00 | 0.00 | 0.32 | 97 | 1006.0 |
| 20260506203358 | 63 | 297 | 0.0 | 0.0 | 0.00 | 0.00 | 0.32 | 98 | 1006.0 |
| 20260506202834 | 63 | 297 | 0.0 | 0.0 | 0.00 | 0.00 | 0.32 | 98 | 1005.9 |
| 20260506202331 | 63 | 297 | 0.0 | 0.0 | 0.00 | 0.00 | 0.32 | 98 | 1005.9 |
| 20260506201836 | 63 | 297 | 0.0 | 0.0 | 0.00 | 0.00 | 0.32 | 98 | 1006.0 |
| 20260506201333 | 63 | 297 | 0.0 | 0.0 | 0.00 | 0.00 | 0.32 | 98 | 1006.0 |
| 20260506200830 | 63 | 297 | 0.0 | 0.0 | 0.00 | 0.00 | 0.32 | 97 | 1006.0 |
| 20260506200328 | 63 | 297 | 0.0 | 0.0 | 0.00 | 0.00 | 0.32 | 97 | 1006.1 |
| 20260506195855 | 62 | 297 | 0.0 | 0.0 | 0.00 | 0.00 | 0.32 | 97 | 1006.1 |
| 20260506195332 | 62 | 297 | 0.0 | 0.0 | 0.00 | 0.00 | 0.32 | 97 | 1005.9 |
| 20260506194834 | 62 | 297 | 0.0 | 0.0 | 0.00 | 0.00 | 0.32 | 97 | 1006.0 |
| 20260506194332 | 62 | 311 | 0.0 | 0.0 | 0.00 | 0.00 | 0.32 | 97 | 1006.0 |
| 20260506193830 | 62 | 338 | 0.0 | 0.0 | 0.00 | 0.00 | 0.32 | 97 | 1006.0 |
| 20260506193327 | 62 | 338 | 0.0 | 0.0 | 0.00 | 0.00 | 0.32 | 97 | 1006.0 |
| 20260506192833 | 62 | 344 | 0.0 | 0.0 | 0.00 | 0.00 | 0.32 | 97 | 1006.0 |
| 20260506192348 | 62 | 41 | 0.0 | 0.0 | 0.00 | 0.00 | 0.32 | 97 | 1006.0 |
| 20260506191833 | 62 | 41 | 0.0 | 0.0 | 0.00 | 0.00 | 0.32 | 97 | 1006.1 |
| 20260506191352 | 62 | 41 | 0.0 | 0.0 | 0.00 | 0.00 | 0.32 | 97 | 1006.1 |
| 20260506190837 | 62 | 323 | 0.0 | 0.0 | 0.00 | 0.00 | 0.32 | 97 | 1006.1 |
| 20260506190334 | 62 | 315 | 0.0 | 0.0 | 0.00 | 0.00 | 0.32 | 98 | 1006.2 |
| 20260506185827 | 62 | 355 | 0.0 | 0.0 | 0.00 | 0.00 | 0.32 | 98 | 1006.3 |
| 20260506185331 | 61 | 355 | 0.0 | 0.0 | 0.00 | 0.00 | 0.32 | 98 | 1006.4 |
| 20260506184823 | 61 | 18 | 0.0 | 0.0 | 0.00 | 0.00 | 0.32 | 97 | 1006.4 |
| 20260506184327 | 61 | 307 | 0.0 | 0.0 | 0.00 | 0.00 | 0.32 | 97 | 1006.5 |
| 20260506183827 | 61 | 355 | 0.0 | 0.0 | 0.00 | 0.00 | 0.32 | 97 | 1006.6 |
| 20260506183333 | 61 | 355 | 0.0 | 0.0 | 0.00 | 0.00 | 0.32 | 97 | 1006.6 |
| 20260506182833 | 61 | 355 | 0.0 | 0.0 | 0.00 | 0.00 | 0.32 | 97 | 1006.7 |
| 20260506182359 | 61 | 303 | 0.0 | 0.0 | 0.00 | 0.00 | 0.32 | 97 | 1006.7 |
| 20260506181834 | 61 | 303 | 0.0 | 0.0 | 0.00 | 0.00 | 0.31 | 97 | 1006.8 |
| 20260506181331 | 61 | 355 | 0.0 | 0.0 | 0.00 | 0.00 | 0.31 | 97 | 1006.9 |
| 20260506180826 | 61 | 355 | 0.0 | 0.0 | 0.00 | 0.00 | 0.31 | 97 | 1006.9 |
| 20260506180331 | 61 | 355 | 0.0 | 0.0 | 0.00 | 0.00 | 0.31 | 97 | 1006.9 |
| 20260506175826 | 61 | 286 | 0.0 | 0.0 | 0.00 | 0.00 | 0.31 | 97 | 1006.9 |
| 20260506175350 | 61 | 328 | 0.0 | 0.0 | 0.00 | 0.00 | 0.30 | 97 | 1006.9 |
| 20260506174846 | 61 | 355 | 0.0 | 0.0 | 0.00 | 0.00 | 0.30 | 97 | 1007.0 |
| 20260506174331 | 61 | 322 | 0.0 | 0.0 | 0.00 | 0.00 | 0.30 | 97 | 1007.0 |
| 20260506173826 | 61 | 322 | 0.0 | 0.0 | 0.00 | 0.00 | 0.30 | 97 | 1007.0 |
| 20260506173351 | 61 | 322 | 0.0 | 0.0 | 0.00 | 0.00 | 0.29 | 97 | 1007.1 |
| 20260506172826 | 61 | 322 | 0.0 | 0.0 | 0.00 | 0.00 | 0.29 | 97 | 1006.9 |
| 20260506172324 | 61 | 322 | 0.0 | 0.0 | 0.00 | 0.00 | 0.29 | 97 | 1006.9 |
| 20260506171826 | 61 | 286 | 0.0 | 0.0 | 0.00 | 0.00 | 0.29 | 97 | 1006.9 |
| 20260506171325 | 61 | 288 | 0.0 | 0.0 | 0.00 | 0.00 | 0.28 | 97 | 1006.9 |
| 20260506170850 | 61 | 325 | 0.0 | 0.0 | 0.00 | 0.00 | 0.28 | 96 | 1006.9 |
| 20260506170326 | 61 | 18 | 0.0 | 0.0 | 0.00 | 0.00 | 0.27 | 97 | 1007.0 |
| 20260506165837 | 61 | 321 | 0.0 | 0.0 | 0.00 | 0.00 | 0.27 | 96 | 1007.1 |
| 20260506165347 | 61 | 321 | 0.0 | 0.0 | 0.00 | 0.00 | 0.25 | 96 | 1007.1 |
| 20260506164822 | 61 | 313 | 0.0 | 0.0 | 0.00 | 0.00 | 0.23 | 96 | 1007.2 |
| 20260506164336 | 61 | 5 | 0.0 | 0.0 | 0.00 | 0.00 | 0.22 | 96 | 1007.2 |
| 20260506163842 | 61 | 5 | 0.0 | 0.0 | 0.00 | 0.00 | 0.22 | 96 | 1007.1 |
| 20260506163340 | 61 | 24 | 0.0 | 0.0 | 0.00 | 0.00 | 0.21 | 96 | 1007.2 |
| 20260506162838 | 61 | 24 | 0.0 | 0.0 | 0.00 | 0.00 | 0.21 | 96 | 1007.3 |
| 20260506162335 | 61 | 24 | 0.0 | 0.0 | 0.00 | 0.00 | 0.21 | 97 | 1007.3 |
| 20260506161903 | 61 | 24 | 0.0 | 0.0 | 0.00 | 0.00 | 0.21 | 97 | 1007.2 |
| 20260506161321 | 61 | 360 | 0.0 | 0.0 | 0.00 | 0.00 | 0.21 | 96 | 1007.1 |
| 20260506160822 | 61 | 339 | 0.0 | 0.0 | 0.00 | 0.00 | 0.20 | 96 | 1007.1 |
| 20260506160334 | 61 | 339 | 0.0 | 0.0 | 0.00 | 0.00 | 0.20 | 96 | 1007.0 |
| 20260506155902 | 61 | 42 | 0.0 | 0.0 | 0.00 | 0.00 | 0.20 | 96 | 1006.9 |
| 20260506155337 | 61 | 42 | 0.0 | 0.0 | 0.00 | 0.00 | 0.19 | 96 | 1007.1 |
| 20260506154835 | 61 | 111 | 0.0 | 0.0 | 0.00 | 0.00 | 0.19 | 96 | 1007.0 |
| 20260506154331 | 61 | 123 | 0.0 | 0.0 | 0.00 | 0.00 | 0.18 | 96 | 1007.2 |
| 20260506153837 | 61 | 121 | 0.0 | 0.0 | 0.00 | 0.00 | 0.17 | 96 | 1007.3 |
| 20260506153334 | 61 | 130 | 0.0 | 0.0 | 0.00 | 0.00 | 0.17 | 96 | 1007.6 |
| 20260506152831 | 61 | 130 | 0.0 | 0.0 | 0.00 | 0.00 | 0.16 | 96 | 1007.7 |
| 20260506152328 | 61 | 130 | 0.0 | 0.0 | 0.00 | 0.00 | 0.15 | 95 | 1008.0 |
| 20260506151834 | 61 | 130 | 0.0 | 0.0 | 0.00 | 0.00 | 0.14 | 95 | 1008.0 |
| 20260506151331 | 61 | 138 | 0.0 | 0.0 | 0.00 | 0.00 | 0.13 | 95 | 1008.2 |
| 20260506150845 | 62 | 65 | 0.0 | 0.0 | 0.00 | 0.00 | 0.11 | 95 | 1008.2 |
| 20260506150350 | 62 | 65 | 0.0 | 0.0 | 0.00 | 0.00 | 0.09 | 95 | 1008.2 |
| 20260506145826 | 62 | 65 | 0.0 | 0.0 | 0.00 | 0.00 | 0.08 | 95 | 1008.2 |
| 20260506145352 | 62 | 116 | 0.0 | 0.0 | 0.00 | 0.00 | 0.08 | 95 | 1007.9 |
| 20260506144830 | 62 | 237 | 0.0 | 0.0 | 0.00 | 0.00 | 0.07 | 95 | 1007.9 |
| 20260506144357 | 62 | 237 | 0.0 | 0.0 | 0.00 | 0.00 | 0.07 | 95 | 1007.9 |
| 20260506143832 | 62 | 237 | 0.0 | 0.0 | 0.00 | 0.00 | 0.06 | 95 | 1007.9 |
| 20260506143346 | 62 | 237 | 0.0 | 0.0 | 0.00 | 0.00 | 0.05 | 95 | 1007.8 |
| 20260506142846 | 62 | 237 | 0.0 | 0.0 | 0.00 | 0.00 | 0.05 | 95 | 1007.8 |
| 20260506142321 | 62 | 237 | 0.0 | 0.0 | 0.00 | 0.00 | 0.04 | 94 | 1007.6 |
| 20260506141832 | 62 | 237 | 0.0 | 0.0 | 0.00 | 0.00 | 0.04 | 94 | 1007.8 |
| 20260506141340 | 62 | 237 | 0.0 | 0.0 | 0.00 | 0.00 | 0.04 | 94 | 1007.8 |
| 20260506140841 | 62 | 237 | 0.0 | 0.0 | 0.00 | 0.00 | 0.03 | 94 | 1008.0 |
| 20260506140338 | 62 | 237 | 0.0 | 0.0 | 0.00 | 0.00 | 0.03 | 94 | 1008.0 |
| 20260506135835 | 62 | 346 | 0.0 | 0.0 | 0.00 | 0.00 | 0.02 | 94 | 1007.9 |
| 20260506135332 | 62 | 346 | 0.0 | 0.0 | 0.00 | 0.00 | 0.02 | 94 | 1007.9 |
| 20260506134844 | 62 | 346 | 0.0 | 0.0 | 0.00 | 0.00 | 0.02 | 93 | 1007.9 |
| 20260506134340 | 62 | 346 | 0.0 | 0.0 | 0.00 | 0.00 | 0.02 | 94 | 1007.8 |
| 20260506133837 | 62 | 346 | 0.0 | 0.0 | 0.00 | 0.00 | 0.02 | 94 | 1007.8 |
| 20260506133355 | 62 | 346 | 0.0 | 0.0 | 0.00 | 0.00 | 0.02 | 94 | 1007.9 |
| 20260506132846 | 62 | 346 | 0.0 | 0.0 | 0.00 | 0.00 | 0.02 | 94 | 1008.0 |
| 20260506132339 | 62 | 346 | 0.0 | 0.0 | 0.00 | 0.00 | 0.02 | 94 | 1008.1 |
| 20260506131836 | 62 | 346 | 0.0 | 0.0 | 0.00 | 0.00 | 0.01 | 93 | 1008.2 |
| 20260506131337 | 62 | 346 | 0.0 | 0.0 | 0.00 | 0.00 | 0.01 | 92 | 1008.2 |
| 20260506130903 | 62 | 346 | 0.0 | 0.0 | 0.00 | 0.00 | 0.01 | 92 | 1008.3 |
| 20260506130338 | 62 | 346 | 0.0 | 0.0 | 0.00 | 0.00 | 0.01 | 92 | 1008.3 |
| 20260506125836 | 62 | 346 | 0.0 | 0.0 | 0.00 | 0.00 | 0.01 | 92 | 1008.3 |
| 20260506125332 | 63 | 346 | 0.0 | 0.0 | 0.00 | 0.00 | 0.00 | 91 | 1008.3 |
| 20260506124839 | 63 | 346 | 0.0 | 0.0 | 0.00 | 0.00 | 0.00 | 91 | 1008.2 |
| 20260506124335 | 63 | 346 | 0.0 | 0.0 | 0.00 | 0.00 | 0.00 | 90 | 1008.2 |
| 20260506123832 | 63 | 346 | 0.0 | 0.0 | 0.00 | 0.00 | 0.00 | 89 | 1008.3 |
| 20260506123332 | 63 | 345 | 0.0 | 0.0 | 0.00 | 0.00 | 0.00 | 89 | 1008.4 |
| 20260506122856 | 63 | 346 | 0.0 | 0.0 | 0.00 | 0.00 | 0.00 | 88 | 1008.4 |
| 20260506122333 | 64 | 336 | 0.0 | 0.0 | 0.00 | 0.00 | 0.00 | 88 | 1008.1 |
| 20260506121901 | 64 | 336 | 0.0 | 0.0 | 0.00 | 0.00 | 0.00 | 86 | 1008.1 |
| 20260506121336 | 64 | 317 | 0.0 | 0.0 | 0.00 | 0.00 | 0.00 | 86 | 1008.2 |
| 20260506120853 | 64 | 9 | 0.0 | 0.0 | 0.00 | 0.00 | 0.00 | 85 | 1008.0 |
| 20260506120338 | 65 | 9 | 0.0 | 0.0 | 0.00 | 0.00 | 0.00 | 85 | 1008.0 |
| 20260506115855 | 65 | 9 | 0.0 | 0.0 | 0.00 | 0.00 | 0.00 | 83 | 1007.9 |
| 20260506115331 | 65 | 5 | 0.0 | 0.0 | 0.00 | 0.00 | 0.00 | 83 | 1008.0 |
| 20260506114836 | 65 | 27 | 0.0 | 0.0 | 0.00 | 0.00 | 0.00 | 81 | 1007.9 |
| 20260506114333 | 65 | 24 | 0.0 | 0.0 | 0.00 | 0.00 | 0.00 | 81 | 1007.9 |
| 20260506113829 | 65 | 346 | 0.0 | 0.0 | 0.00 | 0.00 | 0.00 | 81 | 1008.0 |
| 20260506113324 | 65 | 345 | 0.0 | 0.0 | 0.00 | 0.00 | 0.00 | 80 | 1007.8 |
| 20260506112829 | 65 | 50 | 0.0 | 0.0 | 0.00 | 0.00 | 0.00 | 80 | 1007.8 |
| 20260506112347 | 66 | 51 | 0.0 | 0.0 | 0.00 | 0.00 | 0.00 | 79 | 1007.8 |
| 20260506111832 | 66 | 304 | 0.0 | 0.0 | 0.00 | 0.00 | 0.00 | 79 | 1007.8 |
| 20260506111326 | 66 | 31 | 0.0 | 0.0 | 0.00 | 0.00 | 0.00 | 78 | 1007.9 |
| 20260506110852 | 66 | 84 | 0.0 | 0.0 | 0.00 | 0.00 | 0.00 | 78 | 1008.0 |
| 20260506110326 | 66 | 52 | 0.0 | 0.0 | 0.00 | 0.00 | 0.00 | 78 | 1007.8 |
| 20260506105820 | 66 | 24 | 0.0 | 0.0 | 0.00 | 0.00 | 0.00 | 78 | 1007.8 |
| 20260506105326 | 65 | 24 | 0.0 | 0.0 | 0.00 | 0.00 | 0.00 | 78 | 1007.6 |
| 20260506104858 | 65 | 5 | 0.0 | 0.0 | 0.00 | 0.00 | 0.00 | 79 | 1007.5 |
| 20260506104342 | 65 | 360 | 0.0 | 0.0 | 0.00 | 0.00 | 0.00 | 79 | 1007.4 |
| 20260506103850 | 65 | 251 | 0.0 | 0.0 | 0.00 | 0.00 | 0.00 | 80 | 1007.3 |
| 20260506103344 | 64 | 250 | 0.0 | 0.0 | 0.00 | 0.00 | 0.00 | 80 | 1007.3 |
| 20260506102853 | 64 | 61 | 0.0 | 0.0 | 0.00 | 0.00 | 0.00 | 80 | 1007.3 |
| 20260506102327 | 64 | 61 | 0.0 | 0.0 | 0.00 | 0.00 | 0.00 | 81 | 1007.2 |
| 20260506101835 | 64 | 61 | 0.0 | 0.0 | 0.00 | 0.00 | 0.00 | 80 | 1007.2 |
| 20260506101331 | 64 | 61 | 0.0 | 0.0 | 0.00 | 0.00 | 0.00 | 80 | 1007.2 |
| 20260506100826 | 64 | 61 | 0.0 | 0.0 | 0.00 | 0.00 | 0.00 | 79 | 1007.1 |
| 20260506100348 | 65 | 61 | 0.0 | 0.0 | 0.00 | 0.00 | 0.00 | 79 | 1007.2 |
| 20260506095822 | 65 | 61 | 0.0 | 0.0 | 0.00 | 0.00 | 0.00 | 79 | 1007.2 |
| 20260506095321 | 64 | 23 | 0.0 | 0.0 | 0.00 | 0.00 | 0.00 | 79 | 1007.2 |
| 20260506094848 | 64 | 57 | 0.0 | 0.0 | 0.00 | 0.00 | 0.00 | 79 | 1007.2 |
| 20260506094322 | 64 | 56 | 0.0 | 0.0 | 0.00 | 0.00 | 0.00 | 79 | 1007.3 |
| 20260506093824 | 64 | 56 | 0.0 | 0.0 | 0.00 | 0.00 | 0.00 | 78 | 1007.4 |
| 20260506093353 | 64 | 300 | 0.0 | 0.0 | 0.00 | 0.00 | 0.00 | 78 | 1007.4 |
| 20260506092826 | 65 | 300 | 0.0 | 0.0 | 0.00 | 0.00 | 0.00 | 77 | 1007.4 |
| 20260506092352 | 65 | 29 | 0.0 | 0.0 | 0.00 | 0.00 | 0.00 | 77 | 1007.3 |
| 20260506091826 | 65 | 95 | 0.0 | 0.0 | 0.00 | 0.00 | 0.00 | 77 | 1007.4 |
| 20260506091332 | 65 | 150 | 0.0 | 0.0 | 0.00 | 0.00 | 0.00 | 77 | 1007.4 |
| 20260506090821 | 65 | 71 | 0.0 | 0.0 | 0.00 | 0.00 | 0.00 | 76 | 1007.4 |
| 20260506090347 | 65 | 69 | 0.0 | 0.0 | 0.00 | 0.00 | 0.00 | 76 | 1007.4 |
| 20260506085845 | 65 | 70 | 0.0 | 0.0 | 0.00 | 0.00 | 0.00 | 76 | 1007.3 |
| 20260506085350 | 65 | 70 | 0.0 | 0.0 | 0.00 | 0.00 | 0.00 | 76 | 1007.4 |
| 20260506084828 | 65 | 70 | 0.0 | 0.0 | 0.00 | 0.00 | 0.00 | 76 | 1007.4 |
| 20260506084327 | 65 | 70 | 0.0 | 0.0 | 0.00 | 0.00 | 0.00 | 76 | 1007.4 |
| 20260506083853 | 65 | 69 | 0.0 | 0.0 | 0.00 | 0.00 | 0.00 | 76 | 1007.4 |
| 20260506083348 | 65 | 69 | 0.0 | 0.0 | 0.00 | 0.00 | 0.00 | 75 | 1007.4 |
| 20260506082853 | 65 | 69 | 0.0 | 0.0 | 0.00 | 0.00 | 0.00 | 75 | 1007.4 |
| 20260506082329 | 65 | 69 | 0.0 | 0.0 | 0.00 | 0.00 | 0.00 | 75 | 1007.5 |
| 20260506081859 | 65 | 76 | 0.0 | 0.0 | 0.00 | 0.00 | 0.00 | 75 | 1007.4 |
| 20260506081338 | 65 | 136 | 0.0 | 0.0 | 0.00 | 0.00 | 0.00 | 75 | 1007.4 |
| 20260506080835 | 65 | 136 | 0.0 | 0.0 | 0.00 | 0.00 | 0.00 | 75 | 1007.4 |
| 20260506080332 | 65 | 136 | 0.0 | 0.0 | 0.00 | 0.00 | 0.00 | 74 | 1007.4 |
| 20260506073341 | 64 | 62 | 0.0 | 0.0 | 0.00 | 0.00 | 0.00 | 75 | 1007.5 |
| 20260506072838 | 64 | 62 | 0.0 | 0.0 | 0.00 | 0.00 | 0.00 | 74 | 1007.6 |
| 20260506072331 | 64 | 63 | 0.0 | 0.0 | 0.00 | 0.00 | 0.00 | 74 | 1007.6 |
| 20260506071828 | 64 | 64 | 0.0 | 0.0 | 0.00 | 0.00 | 0.00 | 74 | 1007.7 |
| 20260506071325 | 65 | 64 | 0.0 | 0.0 | 0.00 | 0.00 | 0.00 | 73 | 1007.7 |
| 20260506070831 | 65 | 64 | 0.0 | 0.0 | 0.00 | 0.00 | 0.00 | 73 | 1007.7 |
| 20260506070329 | 65 | 64 | 0.0 | 0.0 | 0.00 | 0.00 | 0.00 | 73 | 1007.7 |
| 20260506062331 | 66 | 302 | 0.0 | 0.0 | 0.00 | 0.00 | 0.00 | 69 | 1008.0 |
| 20260506061828 | 66 | 78 | 0.0 | 0.0 | 0.00 | 0.00 | 0.00 | 69 | 1008.1 |
| 20260506061325 | 67 | 78 | 0.0 | 0.0 | 0.00 | 0.00 | 0.00 | 68 | 1008.1 |
| 20260506060823 | 67 | 78 | 0.0 | 0.0 | 0.00 | 0.00 | 0.00 | 68 | 1008.2 |
| 20260506060349 | 67 | 78 | 0.0 | 0.0 | 0.00 | 0.00 | 0.00 | 67 | 1008.2 |
| 20260506051322 | 68 | 128 | 0.0 | 0.0 | 0.00 | 0.00 | 0.00 | 65 | 1008.5 |
| 20260506050833 | 68 | 74 | 0.0 | 0.0 | 0.00 | 0.00 | 0.00 | 64 | 1008.6 |
| 20260506050327 | 68 | 69 | 0.0 | 0.0 | 0.00 | 0.00 | 0.00 | 64 | 1008.5 |
| 20260506044849 | 68 | 310 | 0.0 | 0.0 | 0.00 | 0.00 | 0.00 | 63 | 1008.6 |
| 20260506044346 | 68 | 99 | 0.0 | 0.0 | 0.00 | 0.00 | 0.00 | 62 | 1008.5 |
| 20260506043824 | 68 | 108 | 0.0 | 0.0 | 0.00 | 0.00 | 0.00 | 62 | 1008.6 |
| 20260506043321 | 67 | 226 | 0.0 | 0.0 | 0.00 | 0.00 | 0.00 | 61 | 1008.6 |
| 20260506042835 | 67 | 11 | 0.0 | 0.0 | 0.00 | 0.00 | 0.00 | 63 | 1008.6 |
| 20260506042333 | 66 | 325 | 0.0 | 0.0 | 0.00 | 0.00 | 0.00 | 65 | 1008.5 |
| 20260506041842 | 66 | 330 | 0.0 | 0.0 | 0.00 | 0.00 | 0.00 | 65 | 1008.6 |
| 20260506041338 | 66 | 340 | 0.0 | 0.0 | 0.00 | 0.00 | 0.00 | 65 | 1008.6 |
| 20260506040835 | 66 | 27 | 0.0 | 0.0 | 0.00 | 0.00 | 0.00 | 65 | 1008.7 |
| 20260506040335 | 66 | 217 | 0.0 | 0.0 | 0.00 | 0.00 | 0.00 | 66 | 1008.7 |
| 20260506035843 | 66 | 74 | 0.0 | 0.0 | 0.00 | 0.00 | 0.00 | 66 | 1008.6 |
| 20260506035340 | 65 | 36 | 0.0 | 0.0 | 0.00 | 0.00 | 0.00 | 66 | 1008.5 |
| 20260506034838 | 66 | 35 | 0.0 | 0.0 | 0.00 | 0.00 | 0.00 | 67 | 1008.6 |
| 20260506034336 | 66 | 30 | 0.0 | 0.0 | 0.00 | 0.00 | 0.00 | 65 | 1008.5 |
| 20260506033833 | 66 | 150 | 0.0 | 0.0 | 0.00 | 0.00 | 0.00 | 65 | 1008.5 |
| 20260506033355 | 66 | 149 | 0.0 | 0.0 | 0.00 | 0.00 | 0.00 | 65 | 1008.6 |
| 20260506032851 | 66 | 150 | 0.0 | 0.0 | 0.00 | 0.00 | 0.00 | 64 | 1008.5 |
| 20260506032338 | 66 | 150 | 0.0 | 0.0 | 0.00 | 0.00 | 0.00 | 67 | 1008.6 |
| 20260506031835 | 66 | 150 | 0.0 | 0.0 | 0.00 | 0.00 | 0.00 | 65 | 1008.5 |
| 20260506031333 | 66 | 150 | 0.0 | 0.0 | 0.00 | 0.00 | 0.00 | 65 | 1008.5 |
| 20260506030833 | 66 | 150 | 0.0 | 0.0 | 0.00 | 0.00 | 0.00 | 65 | 1008.6 |
| 20260506030359 | 66 | 150 | 0.0 | 0.0 | 0.00 | 0.00 | 0.00 | 66 | 1008.6 |
| 20260506025838 | 66 | 150 | 0.0 | 0.0 | 0.00 | 0.00 | 0.00 | 66 | 1008.5 |
| 20260506025335 | 67 | 150 | 0.0 | 0.0 | 0.00 | 0.00 | 0.00 | 65 | 1008.6 |
| 20260506024843 | 67 | 150 | 0.0 | 0.0 | 0.00 | 0.00 | 0.00 | 63 | 1008.6 |
| 20260506024344 | 67 | 150 | 0.0 | 0.0 | 0.00 | 0.00 | 0.00 | 64 | 1008.5 |
| 20260506023820 | 67 | 150 | 0.0 | 0.0 | 0.00 | 0.00 | 0.00 | 63 | 1008.6 |
| 20260506023337 | 68 | 150 | 0.0 | 0.0 | 0.00 | 0.00 | 0.00 | 62 | 1008.6 |
| 20260506022836 | 68 | 150 | 0.0 | 0.0 | 0.00 | 0.00 | 0.00 | 61 | 1008.6 |
| 20260506022342 | 68 | 150 | 0.0 | 0.0 | 0.00 | 0.00 | 0.00 | 60 | 1008.6 |
| 20260506021839 | 68 | 150 | 0.0 | 0.0 | 0.00 | 0.00 | 0.00 | 60 | 1008.6 |
| 20260506021336 | 68 | 150 | 0.0 | 0.0 | 0.00 | 0.00 | 0.00 | 60 | 1008.6 |
| 20260506020832 | 68 | 150 | 0.0 | 0.0 | 0.00 | 0.00 | 0.00 | 62 | 1008.7 |
| 20260506020339 | 68 | 150 | 0.0 | 0.0 | 0.00 | 0.00 | 0.00 | 61 | 1008.6 |
| 20260506015835 | 69 | 150 | 0.0 | 0.0 | 0.00 | 0.00 | 0.00 | 60 | 1008.6 |
| 20260506015332 | 69 | 150 | 0.0 | 0.0 | 0.00 | 0.00 | 0.00 | 59 | 1008.6 |
| 20260506014905 | 69 | 150 | 0.0 | 0.0 | 0.00 | 0.00 | 0.00 | 58 | 1008.5 |
| 20260506014341 | 69 | 98 | 0.0 | 0.0 | 0.00 | 0.00 | 0.00 | 58 | 1008.5 |
| 20260506013821 | 69 | 98 | 0.0 | 0.0 | 0.00 | 0.00 | 0.00 | 57 | 1008.5 |
| 20260506013334 | 70 | 98 | 0.0 | 0.0 | 0.00 | 0.00 | 0.00 | 57 | 1008.4 |
| 20260506012834 | 70 | 98 | 0.0 | 0.0 | 0.00 | 0.00 | 0.00 | 55 | 1008.3 |
| 20260506012331 | 70 | 98 | 0.0 | 0.0 | 0.00 | 0.00 | 0.00 | 59 | 1008.2 |
| 20260506011837 | 70 | 100 | 0.0 | 0.0 | 0.00 | 0.00 | 0.00 | 55 | 1008.2 |
| 20260506011334 | 70 | 22 | 0.0 | 0.0 | 0.00 | 0.00 | 0.00 | 56 | 1008.0 |
| 20260506010833 | 70 | 106 | 0.0 | 0.0 | 0.00 | 0.00 | 0.00 | 56 | 1008.0 |
| 20260506010329 | 70 | 106 | 0.0 | 0.0 | 0.00 | 0.00 | 0.00 | 57 | 1007.9 |
| 20260506005834 | 70 | 106 | 0.0 | 0.0 | 0.00 | 0.00 | 0.00 | 56 | 1007.8 |
| 20260506005331 | 71 | 108 | 0.0 | 0.0 | 0.00 | 0.00 | 0.00 | 56 | 1007.8 |
| 20260506004826 | 71 | 44 | 0.0 | 0.0 | 0.00 | 0.00 | 0.00 | 56 | 1007.7 |
| 20260506004352 | 71 | 104 | 0.0 | 0.0 | 0.00 | 0.00 | 0.00 | 57 | 1007.6 |
| 20260506003822 | 71 | 104 | 0.0 | 0.0 | 0.00 | 0.00 | 0.00 | 56 | 1007.6 |
| 20260506003329 | 71 | 351 | 0.0 | 0.0 | 0.00 | 0.00 | 0.00 | 58 | 1007.6 |
| 20260506002843 | 71 | 5 | 0.0 | 0.0 | 0.00 | 0.00 | 0.00 | 55 | 1007.7 |
| 20260506002327 | 72 | 5 | 0.0 | 0.0 | 0.00 | 0.00 | 0.00 | 56 | 1007.6 |
| 20260506001842 | 72 | 285 | 0.0 | 0.0 | 0.00 | 0.00 | 0.00 | 56 | 1007.5 |
| 20260506001331 | 72 | 5 | 0.0 | 0.0 | 0.00 | 0.00 | 0.00 | 54 | 1007.4 |
| 20260506000826 | 73 | 53 | 0.0 | 0.0 | 0.00 | 0.00 | 0.00 | 54 | 1007.4 |
| 20260506000322 | 73 | 53 | 0.0 | 0.0 | 0.00 | 0.00 | 0.00 | 52 | 1007.4 |
| 20260505235826 | 74 | 158 | 0.0 | 0.0 | 0.00 | 0.00 | 0.00 | 52 | 1007.3 |
| 20260505235322 | 74 | 180 | 0.0 | 0.0 | 0.00 | 0.00 | 0.00 | 51 | 1007.3 |
| 20260505234823 | 74 | 180 | 0.0 | 0.0 | 0.00 | 0.00 | 0.00 | 54 | 1007.2 |
| 20260505234348 | 74 | 293 | 0.0 | 0.0 | 0.00 | 0.00 | 0.00 | 50 | 1007.3 |
| 20260505233823 | 74 | 59 | 0.0 | 0.0 | 0.00 | 0.00 | 0.00 | 52 | 1007.2 |
| 20260505233321 | 75 | 59 | 0.0 | 0.0 | 0.00 | 0.00 | 0.00 | 53 | 1007.1 |
| 20260505232909 | 75 | 58 | 0.0 | 0.0 | 0.00 | 0.00 | 0.00 | 48 | 1007.1 |
| 20260505232323 | 76 | 57 | 0.0 | 0.0 | 0.00 | 0.00 | 0.00 | 48 | 1007.0 |
| 20260505231840 | 76 | 117 | 0.0 | 0.0 | 0.00 | 0.00 | 0.00 | 49 | 1007.1 |